Total_Precipitation_Accumulation
1.46 1.46 1.45 1.43 1.34 1.32 1.34 1.32 1.28 1.28 1.32 1.28 1.18 1.12 1.20 1.18 1.13 1.19 1.22 1.29 1.37 1.52 1.67 1.81 1.97 2.23 2.54 2.61 2.58 2.48 2.41 2.29 2.07 1.83 1.61 1.51 1.81 1.89 1.80 1.67 1.65 1.62 1.41
1.38 1.41 1.39 1.28 1.19 1.19 1.18 1.09 0.98 0.92 0.93 1.04 1.16 1.09 1.06 1.08 1.10 1.16 1.15 1.18 1.23 1.35 1.46 1.60 1.79 2.09 2.44 2.66 2.76 2.65 2.50 2.40 2.26 2.09 1.74 1.48 1.59 1.91 2.02 1.94 1.75 1.60 1.46
1.39 1.28 1.17 1.10 1.08 1.11 1.04 0.96 0.91 0.80 0.75 0.76 0.86 0.86 0.95 1.04 1.07 1.11 1.12 1.15 1.19 1.27 1.42 1.49 1.56 1.78 1.99 2.19 2.38 2.52 2.49 2.48 2.45 2.21 1.90 1.62 1.54 1.70 1.95 1.94 1.88 1.87 1.62
1.45 1.36 1.22 1.13 1.10 1.08 1.04 1.00 0.92 0.86 0.83 0.83 0.94 0.98 0.94 0.94 0.98 1.07 1.11 1.09 1.08 1.10 1.17 1.27 1.37 1.45 1.64 1.79 1.92 2.14 2.34 2.59 2.64 2.48 2.21 1.88 1.76 1.65 1.74 1.90 1.97 1.92 1.83
1.47 1.45 1.30 1.25 1.21 1.10 1.04 1.03 1.00 1.00 0.93 0.90 0.99 1.08 1.13 1.09 1.07 1.14 1.10 1.09 1.10 1.07 1.10 1.09 1.17 1.23 1.34 1.54 1.57 1.80 2.12 2.41 2.50 2.57 2.45 2.13 1.86 1.72 1.48 1.58 1.84 2.05 2.05
1.16 1.25 1.21 1.13 1.03 1.01 1.03 1.00 0.94 0.92 0.87 0.80 0.80 0.85 0.94 1.01 1.30 1.25 1.04 0.98 1.04 1.08 1.11 1.09 1.12 1.09 1.07 1.16 1.31 1.43 1.72 1.97 2.11 2.19 2.21 2.05 1.83 1.70 1.65 1.61 1.68 1.83 1.87
0.92 1.02 1.01 0.95 0.86 0.87 0.92 0.89 0.84 0.78 0.78 0.73 0.72 0.68 0.72 0.92 1.08 0.90 0.86 0.86 0.98 1.09 1.17 1.20 1.14 1.08 1.12 1.12 1.16 1.19 1.25 1.46 1.69 1.91 1.94 1.83 1.89 1.80 1.73 1.63 1.64 1.63 1.60
0.64 0.72 0.75 0.76 0.75 0.76 0.78 0.79 0.83 0.79 0.72 0.67 0.70 0.75 0.75 0.82 0.95 0.78 0.73 0.77 0.97 1.10 1.11 1.08 1.16 1.17 1.21 1.26 1.18 1.23 1.16 1.16 1.27 1.30 1.46 1.71 1.89 2.06 2.04 1.93 1.93 1.84 1.73
0.46 0.50 0.55 0.58 0.63 0.69 0.72 0.74 0.87 0.87 0.79 0.75 0.83 0.87 0.82 0.79 0.90 0.83 0.82 0.88 1.01 1.11 1.07 1.11 1.21 1.25 1.43 1.47 1.34 1.39 1.32 1.28 1.28 1.40 1.49 1.63 1.76 1.87 2.03 2.07 2.02 2.00 1.85
0.43 0.45 0.50 0.51 0.55 0.63 0.72 0.76 0.74 0.71 0.74 0.79 0.79 0.74 0.73 0.81 0.95 0.90 0.94 1.02 1.12 1.24 1.22 1.24 1.49 1.48 1.49 1.41 1.31 1.45 1.42 1.27 1.19 1.23 1.29 1.38 1.44 1.56 1.71 1.75 1.91 2.05 1.96
0.45 0.46 0.48 0.50 0.52 0.57 0.58 0.57 0.61 0.66 0.64 0.62 0.61 0.64 0.68 0.81 0.89 0.93 1.09 1.11 1.16 1.31 1.33 1.32 1.29 1.48 1.43 1.35 1.32 1.32 1.44 1.34 1.24 1.26 1.25 1.25 1.28 1.34 1.40 1.47 1.62 1.81 1.92
0.41 0.41 0.39 0.40 0.41 0.43 0.45 0.44 0.45 0.54 0.60 0.63 0.66 0.68 0.69 0.73 0.79 0.84 0.97 1.07 1.13 1.29 1.37 1.26 1.16 1.42 1.38 1.30 1.19 1.20 1.37 1.42 1.39 1.43 1.42 1.33 1.24 1.20 1.20 1.27 1.38 1.51 1.64
0.40 0.36 0.37 0.36 0.35 0.33 0.36 0.41 0.45 0.47 0.50 0.53 0.59 0.66 0.75 0.75 0.76 0.86 0.89 0.95 1.07 1.22 1.30 1.32 1.28 1.31 1.23 1.16 1.25 1.27 1.30 1.29 1.37 1.44 1.34 1.21 1.14 1.14 1.21 1.32 1.45 1.54 1.62
0.36 0.33 0.36 0.36 0.34 0.31 0.32 0.36 0.38 0.40 0.42 0.47 0.53 0.58 0.63 0.70 0.73 0.85 0.96 0.97 1.06 1.12 1.14 1.20 1.18 1.12 1.12 1.12 1.16 1.24 1.27 1.32 1.35 1.30 1.19 1.07 1.10 1.18 1.22 1.26 1.42 1.56 1.70
0.35 0.33 0.31 0.36 0.36 0.31 0.28 0.32 0.37 0.40 0.49 0.55 0.56 0.58 0.57 0.58 0.67 0.84 0.99 1.07 1.20 1.33 1.35 1.21 1.12 1.07 1.05 1.03 1.05 1.10 1.17 1.18 1.20 1.17 1.15 1.13 1.13 1.17 1.19 1.19 1.30 1.37 1.39
0.34 0.33 0.31 0.29 0.31 0.33 0.33 0.31 0.35 0.40 0.51 0.57 0.59 0.59 0.58 0.63 0.66 0.67 0.76 0.96 1.18 1.48 1.72 1.61 1.52 1.36 1.24 1.12 1.07 1.03 1.00 1.03 1.07 1.11 1.12 1.12 1.15 1.21 1.27 1.27 1.30 1.35 1.34
0.30 0.31 0.30 0.28 0.29 0.30 0.33 0.37 0.40 0.39 0.38 0.40 0.44 0.52 0.58 0.62 0.62 0.66 0.72 0.77 0.94 1.28 1.63 1.62 1.58 1.39 1.22 1.13 1.03 0.93 0.87 0.90 1.00 1.02 1.05 1.09 1.11 1.17 1.22 1.23 1.22 1.27 1.31
0.32 0.32 0.32 0.32 0.32 0.35 0.37 0.40 0.51 0.58 0.52 0.40 0.42 0.46 0.55 0.63 0.67 0.79 0.91 0.96 0.98 1.12 1.24 1.27 1.21 1.14 1.06 0.91 0.85 0.84 0.81 0.85 0.95 0.99 1.01 1.02 1.06 1.12 1.15 1.21 1.22 1.24 1.29
0.33 0.36 0.38 0.41 0.39 0.41 0.45 0.49 0.53 0.48 0.47 0.47 0.44 0.44 0.52 0.59 0.66 0.73 0.81 0.81 0.79 0.83 0.85 0.83 0.79 0.79 0.79 0.74 0.71 0.71 0.74 0.78 0.84 0.93 0.97 0.96 0.97 1.03 1.10 1.17 1.25 1.35 1.34
0.29 0.39 0.44 0.50 0.46 0.42 0.49 0.51 0.47 0.46 0.49 0.52 0.49 0.47 0.52 0.54 0.55 0.61 0.67 0.67 0.62 0.61 0.60 0.61 0.62 0.63 0.66 0.65 0.66 0.68 0.70 0.74 0.80 0.87 0.91 0.97 0.99 0.98 1.01 1.10 1.19 1.27 1.28
0.31 0.36 0.41 0.49 0.50 0.48 0.54 0.53 0.50 0.49 0.50 0.52 0.51 0.54 0.60 0.59 0.57 0.56 0.57 0.57 0.59 0.61 0.60 0.60 0.59 0.62 0.66 0.67 0.69 0.74 0.78 0.81 0.82 0.90 0.94 0.97 1.04 1.07 1.07 1.10 1.14 1.17 1.22
0.33 0.35 0.36 0.42 0.47 0.51 0.55 0.55 0.55 0.52 0.48 0.49 0.51 0.54 0.58 0.57 0.55 0.55 0.54 0.55 0.55 0.58 0.64 0.68 0.69 0.68 0.67 0.70 0.74 0.78 0.80 0.82 0.85 0.91 0.97 1.00 1.03 1.06 1.09 1.11 1.16 1.17 1.18
0.33 0.36 0.37 0.38 0.41 0.49 0.51 0.51 0.55 0.56 0.53 0.52 0.52 0.51 0.53 0.53 0.54 0.56 0.57 0.57 0.60 0.62 0.61 0.63 0.69 0.70 0.68 0.68 0.72 0.78 0.83 0.85 0.88 0.95 1.04 1.05 1.03 1.04 1.09 1.09 1.11 1.17 1.20
0.37 0.39 0.41 0.44 0.46 0.50 0.50 0.50 0.52 0.50 0.52 0.56 0.55 0.53 0.56 0.60 0.59 0.57 0.57 0.63 0.65 0.64 0.62 0.61 0.62 0.66 0.68 0.70 0.72 0.75 0.77 0.83 0.90 0.97 1.04 1.10 1.08 1.05 1.09 1.16 1.16 1.18 1.25
0.39 0.43 0.45 0.47 0.52 0.56 0.57 0.54 0.52 0.50 0.51 0.55 0.53 0.53 0.54 0.58 0.61 0.60 0.60 0.65 0.67 0.65 0.65 0.65 0.64 0.65 0.67 0.69 0.72 0.74 0.84 0.90 0.92 0.96 1.04 1.15 1.17 1.14 1.14 1.22 1.29 1.32 1.36
0.40 0.43 0.46 0.50 0.54 0.58 0.60 0.59 0.57 0.54 0.53 0.52 0.49 0.52 0.56 0.60 0.64 0.65 0.67 0.70 0.71 0.70 0.68 0.69 0.69 0.69 0.69 0.68 0.73 0.83 0.89 0.84 0.86 0.94 1.01 1.14 1.25 1.26 1.26 1.28 1.29 1.34 1.40